Deming, NM

2:56 PM MDT on June 22, 2017 (GMT -0600)
Deming Municipal

Weather History for KDMN - March, 2013

Change the Weather History Date:

Friday, March 29, 2013

  Actual Average Record
Temperature  
Mean Temperature 66 °F 54 °F  
Max Temperature 80 °F 71 °F 85 °F (1967)
Min Temperature 52 °F 37 °F 21 °F (1972)
Cooling Degree Days 1    
Growing Degree Days 16 (Base 50)    
Moisture  
Dew Point 15 °F    
Average Humidity 17    
Maximum Humidity 26    
Minimum Humidity 7    
Precipitation  
Precipitation 0.00 in 0.01 in 0.08 in (1973)
Month to date precipitation 0.19 0.40  
Year to date precipitation 0.48 1.60  
Sea Level Pressure  
Sea Level Pressure 29.95 in    
Wind  
Wind Speed 10 mph (West)    
Max Wind Speed 23 mph    
Max Gust Speed 31 mph    
Visibility 10 miles    
Events      
T = Trace of Precipitation, MM = Missing Value Source: NWS Daily Summary

Daily Weather History Graph

Daily Weather History Graph

Search for Another Location

Airport or City:

Trip Planner

Search our weather history database for the weather conditions in past years. The results will help you decide how hot, cold, wet, or windy it might be!

Date:

Astronomy

Mar. 29, 2013 Rise Set
Actual Time 7:02 AM MDT 7:28 PM MDT
Civil Twilight 6:38 AM MDT 7:53 PM MDT
Nautical Twilight 6:09 AM MDT 8:22 PM MDT
Astronomical Twilight 5:39 AM MDT 8:51 PM MDT
Moon 10:20 PM MDT (3/29) 8:23 AM MDT (3/29)
Length of Visible Light 13h 15m
Length of Day
12h 26m
Waning Gibbous, 93% of the Moon is Illuminated
Mar 29
Waning Gibbous
Apr 2
Last Quarter
Apr 10
New
Apr 18
First Quarter
Apr 25
Full

Hourly Weather History & Observations

Time (MDT) Temp. Dew Point Humidity Pressure Visibility Wind Dir Wind Speed Gust Speed Precip Events Conditions
12:53 AM 55.9 °F 16.0 °F 21% 29.94 in 10.0 mi WSW 8.1 mph - N/A   Clear
1:53 AM 57.0 °F 17.1 °F 21% 29.94 in 10.0 mi WNW 9.2 mph - N/A   Clear
2:53 AM 55.0 °F 17.1 °F 23% 29.95 in 10.0 mi West 8.1 mph - N/A   Clear
3:53 AM 55.0 °F 17.1 °F 23% 29.94 in 10.0 mi West 5.8 mph - N/A   Clear
4:53 AM 52.0 °F 17.1 °F 25% 29.95 in 10.0 mi WSW 8.1 mph - N/A   Clear
5:53 AM 54.0 °F 17.1 °F 23% 29.97 in 10.0 mi West 8.1 mph - N/A   Clear
6:53 AM 54.0 °F 16.0 °F 22% 29.97 in 10.0 mi NNW 5.8 mph - N/A   Clear
7:53 AM 53.1 °F 16.0 °F 23% 30.03 in 10.0 mi SW 5.8 mph - N/A   Clear
8:53 AM 57.9 °F 18.0 °F 21% 30.03 in 10.0 mi West 3.5 mph - N/A   Clear
9:53 AM 68.0 °F 16.0 °F 14% 30.01 in 10.0 mi Variable 5.8 mph - N/A   Clear
10:53 AM 73.0 °F 15.1 °F 11% 30.00 in 10.0 mi NW 8.1 mph - N/A   Clear
11:53 AM 75.0 °F 16.0 °F 11% 30.01 in 10.0 mi West 12.7 mph 16.1 mph N/A   Clear
12:53 PM 78.1 °F 16.0 °F 10% 29.97 in 10.0 mi WNW 15.0 mph 21.9 mph N/A   Clear
1:53 PM 79.0 °F 19.0 °F 11% 29.94 in 10.0 mi WSW 11.5 mph 24.2 mph N/A   Clear
2:53 PM 79.0 °F 16.0 °F 9% 29.92 in 10.0 mi WSW 15.0 mph 23.0 mph N/A   Clear
3:53 PM 80.1 °F 12.9 °F 8% 29.89 in 10.0 mi WSW 17.3 mph 26.5 mph N/A   Clear
4:53 PM 79.0 °F 10.0 °F 7% 29.89 in 10.0 mi West 17.3 mph 27.6 mph N/A   Clear
5:53 PM 78.1 °F 10.9 °F 8% 29.88 in 10.0 mi West 18.4 mph 24.2 mph N/A   Clear
6:53 PM 73.9 °F 10.9 °F 9% 29.91 in 10.0 mi West 17.3 mph - N/A   Clear
7:53 PM 71.1 °F 10.9 °F 10% 29.93 in 10.0 mi WNW 11.5 mph - N/A   Clear
8:53 PM 66.9 °F 12.9 °F 12% 29.93 in 10.0 mi NW 9.2 mph - N/A   Clear
9:53 PM 61.0 °F 10.9 °F 14% 29.94 in 10.0 mi NW 6.9 mph - N/A   Clear
10:53 PM 60.1 °F 12.0 °F 15% 29.94 in 10.0 mi NW 10.4 mph - N/A   Clear
11:53 PM 57.9 °F 14.0 °F 18% 29.95 in 10.0 mi WNW 9.2 mph - N/A   Clear